Weather History for KSBS - April, 2013

Change the Weather History Date:

Thursday, April 18, 2013

  Actual Average Record
Temperature  
Mean Temperature 20 °F -  
Max Temperature 30 °F 56 °F 74 °F (1981)
Min Temperature 9 °F 26 °F 7 °F (1937)
Degree Days  
Heating Degree Days 46    
Moisture  
Dew Point 9 °F    
Average Humidity 56    
Maximum Humidity 76    
Minimum Humidity 41    
Precipitation  
Precipitation 0.00 in - - ()
Sea Level Pressure  
Sea Level Pressure 30.18 in    
Wind  
Wind Speed 5 mph (SW)    
Max Wind Speed 16 mph    
Max Gust Speed 22 mph    
Visibility 8 miles    
Events      
Averages and records for this station are not official NWS values.
T = Trace of Precipitation, MM = Missing Value Source: NWS Daily Summary

Daily Weather History Graph

Daily Weather History Graph

Search for Another Location

Airport or City:

Trip Planner

Search our weather history database for the weather conditions in past years. The results will help you decide how hot, cold, wet, or windy it might be!

Date:

Astronomy

Apr. 18, 2013 Rise Set
Actual Time 6:24 AM MDT 7:50 PM MDT
Civil Twilight 5:55 AM MDT 8:18 PM MDT
Nautical Twilight 5:21 AM MDT 8:53 PM MDT
Astronomical Twilight 4:45 AM MDT 9:29 PM MDT
Moon 12:38 PM MDT (4/18) 2:06 AM MDT (4/18)
Length of Visible Light 14h 23m
Length of Day
13h 26m
First Quarter, 52% of the Moon is Illuminated
Apr 18
First Quarter
Apr 25
Full
May 2
Last Quarter
May 9
New
May 17
First Quarter

Hourly Weather History & Observations

Time (MDT) Temp. Windchill Dew Point Humidity Pressure Visibility Wind Dir Wind Speed Gust Speed Precip Events Conditions
8:35 AM 9.3 °F - 3.0 °F 76% 30.13 in 1.2 mi Calm Calm - N/A   Overcast
8:55 AM 10.2 °F - 3.4 °F 74% 30.13 in 5.0 mi Calm Calm - N/A   Overcast
9:15 AM 11.8 °F - 3.6 °F 69% 30.13 in 3.0 mi Calm Calm - N/A   Overcast
9:35 AM 16.9 °F - 5.7 °F 62% 30.14 in 7.0 mi Calm Calm - N/A   Mostly Cloudy
9:55 AM 17.4 °F 12.1 °F 6.6 °F 63% 30.14 in 7.0 mi SSW 3.5 mph - N/A   Overcast
10:15 AM 17.6 °F - 6.6 °F 62% 30.15 in 4.0 mi Calm Calm - N/A   Overcast
10:35 AM 19.6 °F 14.5 °F 7.9 °F 60% 30.15 in 1.8 mi WSW 3.5 mph - N/A   Overcast
10:55 AM 21.4 °F 11.9 °F 8.8 °F 58% 30.15 in 3.0 mi WSW 8.1 mph - N/A   Overcast
11:15 AM 21.0 °F 11.4 °F 8.1 °F 57% 30.16 in 7.0 mi SSW 8.1 mph - N/A   Overcast
11:35 AM 21.9 °F 14.5 °F 9.0 °F 58% 30.16 in 7.0 mi SSW 5.8 mph - N/A   Overcast
11:55 AM 22.3 °F 13.9 °F 9.0 °F 57% 30.16 in 7.0 mi SSW 6.9 mph - N/A   Overcast
12:15 PM 22.8 °F 12.2 °F 9.9 °F 58% 30.16 in 5.0 mi SW 10.4 mph - N/A   Overcast
12:35 PM 22.3 °F 12.2 °F 10.6 °F 61% 30.16 in 2.5 mi SW 9.2 mph 16.1 mph N/A   Overcast
12:55 PM 22.8 °F 12.2 °F 11.1 °F 61% 30.16 in 5.0 mi SW 10.4 mph 16.1 mph N/A   Overcast
1:15 PM 23.5 °F 10.8 °F 10.6 °F 58% 30.16 in 10.0 mi SW 15.0 mph - N/A   Overcast
1:35 PM 23.9 °F 10.8 °F 10.4 °F 56% 30.16 in 10.0 mi SW 16.1 mph - N/A   Overcast
1:55 PM 25.0 °F 13.1 °F 10.6 °F 54% 30.16 in 10.0 mi SW 13.8 mph 21.9 mph N/A   Overcast
2:35 PM 25.9 °F 13.8 °F 8.8 °F 48% 30.17 in 10.0 mi SW 15.0 mph 19.6 mph N/A   Overcast
2:55 PM 26.4 °F 15.0 °F 10.2 °F 51% 30.18 in 10.0 mi SW 13.8 mph 20.7 mph N/A   Overcast
3:15 PM 28.4 °F 17.5 °F 10.2 °F 47% 30.17 in 10.0 mi SW 13.8 mph 18.4 mph N/A   Overcast
3:35 PM 28.6 °F 19.3 °F 10.2 °F 46% 30.18 in 10.0 mi WSW 10.4 mph 20.7 mph N/A   Overcast
3:55 PM 29.1 °F 18.9 °F 9.5 °F 44% 30.18 in 10.0 mi SW 12.7 mph 17.3 mph N/A   Overcast
4:15 PM 28.2 °F 20.2 °F 9.3 °F 45% 30.18 in 10.0 mi WSW 8.1 mph 17.3 mph N/A   Overcast
4:35 PM 30.4 °F 21.0 °F 9.1 °F 41% 30.18 in 10.0 mi SW 11.5 mph - N/A   Overcast
4:55 PM 28.9 °F 18.6 °F 10.0 °F 45% 30.18 in 10.0 mi SW 12.7 mph 17.3 mph N/A   Overcast
5:15 PM 30.2 °F 21.3 °F 9.5 °F 42% 30.19 in 10.0 mi WSW 10.4 mph - N/A   Overcast
5:35 PM 29.7 °F 20.7 °F 10.6 °F 45% 30.19 in 10.0 mi SW 10.4 mph - N/A   Overcast
5:55 PM 29.3 °F 25.6 °F 9.7 °F 44% 30.20 in 10.0 mi WSW 3.5 mph - N/A   Scattered Clouds
6:15 PM 27.7 °F 18.8 °F 7.9 °F 43% 30.20 in 10.0 mi WSW 9.2 mph - N/A   Mostly Cloudy
6:35 PM 28.2 °F 20.2 °F 8.8 °F 44% 30.20 in 10.0 mi SW 8.1 mph - N/A   Overcast
6:55 PM 26.8 °F 19.3 °F 9.7 °F 49% 30.20 in 10.0 mi WSW 6.9 mph - N/A   Overcast
7:15 PM 27.1 °F 23.2 °F 9.0 °F 46% 30.20 in 10.0 mi West 3.5 mph - N/A   Overcast
7:35 PM 25.0 °F - 9.1 °F 51% 30.20 in 10.0 mi Calm Calm - N/A   Overcast
7:55 PM 23.7 °F - 9.5 °F 55% 30.21 in 10.0 mi Calm Calm - N/A   Overcast
8:15 PM 23.9 °F 19.5 °F 9.9 °F 55% 30.21 in 10.0 mi NE 3.5 mph - N/A   Overcast
8:35 PM 23.4 °F - 11.3 °F 60% 30.21 in 10.0 mi Calm Calm - N/A   Overcast
8:55 PM 23.5 °F - 11.1 °F 59% 30.22 in 10.0 mi Calm Calm - N/A   Overcast
9:35 PM 23.2 °F - 9.5 °F 56% 30.23 in 10.0 mi Calm Calm - N/A   Mostly Cloudy
9:55 PM 21.7 °F - 11.5 °F 65% 30.24 in 10.0 mi Calm Calm - N/A   Overcast
10:15 PM 21.4 °F - 10.9 °F 64% 30.23 in 10.0 mi Calm Calm - N/A   Overcast
10:35 PM 21.2 °F - 11.8 °F 67% 30.23 in 10.0 mi Calm Calm - N/A   Overcast
10:55 PM 21.2 °F - 12.0 °F 68% 30.23 in 10.0 mi Calm Calm - N/A   Overcast
11:15 PM 20.8 °F - 12.9 °F 71% 30.24 in 10.0 mi Calm Calm - N/A   Overcast
11:35 PM 20.8 °F - 12.6 °F 70% 30.24 in 10.0 mi Calm Calm - N/A   Overcast
11:55 PM 21.2 °F - 13.5 °F 72% 30.24 in 10.0 mi Calm Calm - N/A   Overcast